Location: Central Falls
(41.8900°N, 71.3929°W)
Time: 07:35:06
(UTC+00:00)

Tiros 1 despin weight - Pass Details

Date: 07 December 2023
Orbit: 581 x 624 km, 48.2° (Epoch: 24 February)

Event Time Altitude Azimuth Distance (km) Brightness Sun altitude
Rises 00:04:28 0° 272° (W) 2,801 ? -30.9°
Reaches altitude 10° 00:06:52 10° 281° (W) 1,898 ? -31.3°
Enters shadow 00:08:51 24° 297° (WNW) 1,236 ? -31.7°
